リニア彗星

265P/LINEAR (2003)

English version
Home page
Updated on July 8, 2012

---------------------------------------------------------------------

・ プロフィール

符号 265P/2003 O2
発見日 2003年7月29日
発見光度 18.6等
発見者 Lincoln Laboratory Near-Earth Asteroid Research project

・ 写真集

・ 軌道要素

Epoch 2003 Aug. 29.0 TT = JDT 2452880.5
T 2003 Sept. 5.80930 TT                                 MPC
q   1.5054541            (2000.0)            P               Q
n   0.11235852     Peri.   32.72085     +0.94941220     -0.30682985
a   4.2533591      Node   344.71136     +0.20468586     +0.76612920
e   0.6460552      Incl.   14.69125     +0.23815998     +0.56471364
P   8.77
From 441 observations 2003 July 30-2012 June 23, mean residual 0".6.

・ 星図

・ 光度変化

        m1 = 12.0 + 5 logΔ + 25.0 log r

---------------------------------------------------------------------

軌道要素はM.P.E.C. 2012-N02に掲載されたものです。
星図は StellaNavigator Ver.2.0 for Windows (アストロアーツ 編著 / アスキー出版局刊) で作成したものです。
光度グラフはComet for Windowsで作成したものです。

---------------------------------------------------------------------

Copyright(C) Seiichi Yoshida (comet@aerith.net). All rights reserved.